TimeMST,TemperatureF,Dew PointF,Humidity,Sea Level PressureIn,VisibilityMPH,Wind Direction,Wind SpeedMPH,Gust SpeedMPH,PrecipitationIn,Events,Conditions,WindDirDegrees,DateUTC
12:30 AM,21.2,19.4,93,30.25,10.0,Variable,6.9,-,N/A,,Scattered Clouds,0,2012-11-27 07:30:00
12:41 AM,21.2,19.4,93,30.24,10.0,South,8.1,-,N/A,,Mostly Cloudy,180,2012-11-27 07:41:00
12:55 AM,23.0,21.0,92,30.33,10.0,South,8.1,-,N/A,,Overcast,180,2012-11-27 07:55:00
1:55 AM,21.9,21.0,96,30.30,10.0,South,8.1,-,N/A,,Mostly Cloudy,170,2012-11-27 08:55:00
2:19 AM,21.2,21.2,100,30.20,10.0,SSE,8.1,-,N/A,,Mostly Cloudy,150,2012-11-27 09:19:00
2:33 AM,21.2,19.4,93,30.21,10.0,SSE,8.1,-,N/A,,Scattered Clouds,150,2012-11-27 09:33:00
2:55 AM,19.0,18.0,96,30.28,9.0,SE,8.1,-,N/A,,Clear,140,2012-11-27 09:55:00
3:55 AM,15.1,15.1,100,30.27,9.0,ESE,6.9,-,N/A,,Clear,120,2012-11-27 10:55:00
4:58 AM,8.6,8.6,100,30.16,1.0,Calm,Calm,-,N/A,,Mist,0,2012-11-27 11:58:00
5:05 AM,10.4,8.6,92,30.16,0.5,Calm,Calm,-,N/A,Fog,Light Freezing Fog,0,2012-11-27 12:05:00
5:14 AM,10.4,10.4,100,30.16,0.2,Calm,Calm,-,N/A,Fog,Light Freezing Fog,0,2012-11-27 12:14:00
5:47 AM,14.0,12.2,93,30.17,0.5,NNW,4.6,-,N/A,Fog,Light Freezing Fog,340,2012-11-27 12:47:00
5:55 AM,14.0,14.0,100,30.33,0.2,NNW,3.5,-,N/A,Fog,Light Freezing Fog,330,2012-11-27 12:55:00
6:21 AM,10.4,8.6,92,30.16,1.0,North,3.5,-,N/A,,Mist,350,2012-11-27 13:21:00
6:27 AM,10.4,8.6,92,30.16,3.0,NNW,4.6,-,N/A,,Overcast,330,2012-11-27 13:27:00
6:44 AM,8.6,6.8,92,30.16,2.0,Calm,Calm,-,N/A,,Overcast,0,2012-11-27 13:44:00
6:55 AM,8.1,6.1,92,30.37,4.0,NW,3.5,-,N/A,,Mostly Cloudy,320,2012-11-27 13:55:00
7:11 AM,8.6,6.8,92,30.16,7.0,Calm,Calm,-,N/A,,Scattered Clouds,0,2012-11-27 14:11:00
7:18 AM,8.6,6.8,92,30.16,6.0,Calm,Calm,-,N/A,,Mostly Cloudy,0,2012-11-27 14:18:00
7:26 AM,10.4,6.8,85,30.17,10.0,Calm,Calm,-,N/A,,Partly Cloudy,0,2012-11-27 14:26:00
7:55 AM,16.0,12.9,88,30.34,10.0,Calm,Calm,-,N/A,,Clear,0,2012-11-27 14:55:00
8:55 AM,30.9,28.0,89,30.30,10.0,Calm,Calm,-,N/A,,Clear,0,2012-11-27 15:55:00
9:55 AM,46.9,24.1,41,30.21,10.0,Calm,Calm,-,N/A,,Clear,0,2012-11-27 16:55:00
10:55 AM,55.9,18.0,23,30.16,10.0,Calm,Calm,-,N/A,,Clear,0,2012-11-27 17:55:00
11:55 AM,64.9,-16.1,4,30.08,10.0,West,11.5,17.3,N/A,,Clear,270,2012-11-27 18:55:00
1:55 PM,61.0,-15.0,4,30.07,10.0,West,8.1,-,N/A,,Clear,280,2012-11-27 20:55:00
2:55 PM,55.9,-0.9,10,30.11,10.0,WNW,3.5,-,N/A,,Clear,300,2012-11-27 21:55:00
3:55 PM,43.0,-0.0,17,30.19,10.0,North,5.8,-,N/A,,Clear,10,2012-11-27 22:55:00
5:55 PM,32.0,12.0,44,30.29,10.0,SSW,9.2,-,N/A,,Clear,210,2012-11-28 00:55:00
6:55 PM,24.1,10.0,55,30.38,10.0,NNW,4.6,-,N/A,,Clear,330,2012-11-28 01:55:00
7:55 PM,21.0,10.0,63,30.37,10.0,Calm,Calm,-,N/A,,Clear,0,2012-11-28 02:55:00
8:55 PM,15.1,8.1,74,30.35,10.0,Calm,Calm,-,N/A,,Clear,0,2012-11-28 03:55:00
9:55 PM,16.0,10.0,77,30.29,10.0,Calm,Calm,-,N/A,,Clear,0,2012-11-28 04:55:00
10:55 PM,15.1,10.0,80,30.26,10.0,Calm,Calm,-,N/A,,Clear,0,2012-11-28 05:55:00
11:55 PM,12.9,8.1,81,30.25,10.0,North,3.5,-,N/A,,Clear,350,2012-11-28 06:55:00